カタログに戻る

CZ-6A DEB

運用中PO
NORAD 61101·DEBRIS·🇨🇳 China

打ち上げ Aug 6, 2024 から Taiyuan Satellite Launch Center

Loading…

次のパス (今後24時間)

TLE

最新Source: Space-Track

元期: Sep 14, 2026, 18:41 UTC

1 61101U 24140NT  26257.77848630  .00000173  00000-0  77346-4 0  9997
2 61101  89.0078 266.0558 0052981 280.1786  79.3429 14.17607924105902

AllMySatでCZ-6A DEBをリアルタイム追跡

Download on the App Store